Location: Peebles
(55.6412°N, 3.1714°W)
Time: 10:07:33
(UTC+01:00)

Cosmos 1184 Rocket - Pass Details

Date: 26 September 2021
Orbit: 396 x 410 km, 81.2° (Epoch: 21 October)

Event Time Altitude Azimuth Distance (km) Brightness Sun altitude
Rises 19:38:45 0° 350° (N) 2,352 6.8 -6.2°
Reaches altitude 10° 19:40:53 10° 359° (N) 1,482 5.6 -6.5°
Maximum altitude 19:43:55 37° 69° (ENE) 649 3.3 -6.9°
Drops below altitude 10° 19:46:55 10° 140° (SE) 1,461 5.1 -7.3°
Enters shadow 19:48:49 - 148° (SSE) 2,237 6.0 -7.6°
